Date,TemperatureHighF,TemperatureAvgF,TemperatureLowF,DewpointHighF,DewpointAvgF,DewpointLowF,HumidityHigh,HumidityAvg,HumidityLow,PressureMaxIn,PressureMinIn,WindSpeedMaxMPH,WindSpeedAvgMPH,GustSpeedMaxMPH,PrecipitationSumIn
2013-2-4,63,56,48,56,52,45,90,86,76,30.10,29.97,4,1,0,0.00
2013-2-5,59,56,54,52,51,50,87,84,78,30.10,29.98,4,0,0,0.00
2013-2-6,55,54,53,50,50,49,86,84,83,30.03,30.00,0,0,0,0.00
2013-2-7,61,52,42,53,47,40,91,81,71,30.13,29.98,5,1,0,0.00
2013-2-8,56,51,42,48,44,39,90,76,64,30.01,29.88,8,3,12,0.25
2013-2-9,59,46,36,45,40,34,91,81,53,30.10,29.94,5,1,11,0.01
2013-2-10,53,44,39,46,40,36,90,86,77,30.10,30.03,2,0,2,0.00
2013-2-11,62,53,39,47,43,37,90,70,47,30.23,30.08,6,2,11,0.00
2013-2-12,62,50,38,49,41,34,94,75,41,30.34,30.23,5,0,6,0.00
2013-2-13,66,52,38,50,42,35,90,71,43,30.26,30.12,5,1,9,0.01
2013-2-14,70,59,48,56,49,45,89,70,53,30.20,30.04,4,1,6,0.00
2013-2-15,82,70,45,47,38,29,80,37,15,30.16,30.09,5,1,10,0.00
2013-2-16,82,66,48,38,33,26,68,34,14,30.13,29.96,6,1,10,0.00
2013-2-17,63,52,42,55,47,38,92,81,70,30.02,29.92,5,1,7,0.00
2013-2-18,62,56,54,50,48,46,81,75,63,30.06,29.95,5,2,10,0.00
2013-2-19,59,54,48,49,44,42,89,70,59,29.99,29.71,8,2,14,0.28
2013-2-20,61,55,44,44,38,32,67,52,42,29.98,29.75,11,6,13,0.00
2013-2-21,64,54,39,46,42,34,87,67,51,30.05,29.96,6,2,11,0.00
2013-2-22,61,52,46,50,46,43,88,80,64,30.17,30.12,5,1,5,0.00
2013-2-23,62,55,46,50,47,42,89,77,53,30.16,29.92,6,1,9,0.01
2013-2-24,64,55,48,39,36,21,70,51,20,30.17,30.10,4,0,4,0.00
2013-2-25,64,55,38,49,41,32,82,60,42,30.21,30.06,6,1,10,0.00
2013-2-26,69,64,57,53,50,42,77,60,38,30.05,29.97,6,3,11,0.00